Weather observations for the past three days for
Big Piney - Marbleton Airport
Imperial (Metric)
Date Time (mdt) Wind (mph) Vis. (mi.) Weather Sky Cond. Temperature (ºF) Relative Humidity Wind Chill (°F) Heat Index (°F) Pressure Precipitation (in)
Air Dwpt 6 hour altimeter (in) sea level (mb) 1 hr 3 hr 6 hr
Max. Min.
18 07:53 Calm 10.00 A Few Clouds FEW050 37 23 57% 30.08 1015.5
18 06:53 Calm 10.00 Partly Cloudy SCT050 32 24.1 73% 30.06 1014.9
18 05:53 Calm 10.00 Mostly Cloudy BKN050 28.9 23 37 28 78% 30.04 1013.5
18 04:53 Calm 10.00 Mostly Cloudy BKN050 28 19.9 72% 30.02 1011.6
18 03:53 Calm 10.00 Partly Cloudy SCT050 30.9 24.1 76% 30.02 1010.5
18 02:53 Calm 10.00 A Few Clouds FEW055 32 24.1 73% 30 1009.7
18 01:53 Calm 10.00 Overcast OVC049 35.1 23 61% 29.99 1008.3
18 00:53 Calm 10.00 Fair CLR 36 21 55% 29.97 1007.8
17 23:53 Calm 10.00 Partly Cloudy SCT050 37 19.9 55 37 50% 29.97 1007.4
17 22:53 Calm 10.00 A Few Clouds FEW060 37 19.9 50% 29.98 1007.9
17 21:53 Calm 10.00 Mostly Cloudy FEW085 BKN110 39 19 45% 29.94 1006.7
17 20:53 Calm 10.00 Overcast FEW050 OVC070 39 19.9 46% 29.91 1006.8
17 19:53 Calm 10.00 Overcast BKN065 OVC080 43 19.9 40% 29.89 1006.5
17 18:53 Calm 10.00 Fair CLR 48 26.1 42% 29.81 1004.8
17 17:53 Calm 10.00 Fair CLR 55 30.9 72 55 40% 29.73 1000.7
17 16:53 Calm 10.00 Fair CLR 64 30.9 29% 29.68 997.3
17 15:53 W 31 G 39 10.00 Fair and Windy CLR 66.9 30.9 26% 29.69 997.1
17 14:53 NW 20 G 35 10.00 Fair CLR 66.9 30.9 26% 29.68 996.7
17 13:53 W 23 G 35 10.00 Fair and Breezy CLR 70 30.9 23% 29.68 995.7
17 12:53 W 26 G 37 10.00 Fair and Windy CLR 70 28.9 22% 29.65 994.6
17 11:53 W 18 G 29 10.00 Partly Cloudy SCT110 71.1 28 71.1 37.9 20% 29.66 994.7
17 10:53 W 16 G 26 10.00 Mostly Cloudy BKN110 69.1 27 21% 29.68 994.8
17 09:53 S 15 G 22 10.00 Fair CLR 66 30 26% 29.69 995.2
17 08:53 E 5 10.00 Fair CLR 57 30 36% 29.73 997.9
17 07:53 E 6 10.00 Fair CLR 50 28.9 44% 48 29.75 999.5
17 06:53 E 3 10.00 Fair CLR 39.9 27 60% 29.77 1000.3
17 05:53 Calm 10.00 Fair CLR 41 28 52 41 60% 29.77 999.8
17 04:53 E 3 10.00 Partly Cloudy SCT100 SCT110 44.1 28 53% 29.77 999.7
17 03:53 N 7 10.00 Fair CLR 43 28.9 58% 39 29.79 1000.2
17 02:53 NW 7 10.00 Fair CLR 45 28.9 54% 42 29.81 1001.0
17 01:53 NW 3 10.00 Fair CLR 46.9 32 56% 29.81 1000.9
17 00:53 Calm 10.00 Fair CLR 48.9 30 48% 29.83 1001.5
16 23:53 N 9 10.00 Fair CLR 51.1 26.1 71.1 51.1 38% 29.85 1002.0
16 22:53 NW 9 10.00 Fair CLR 57 26.1 30% 29.88 1002.3
16 21:53 N 5 10.00 Fair CLR 59 26.1 28% 29.89 1003.5
16 20:53 W 10 10.00 Fair CLR 57.9 32 38% 29.88 1003.7
16 19:53 W 10 10.00 Fair CLR 60.1 35.1 39% 29.87 1003.6
16 18:53 W 17 10.00 Fair CLR 66.9 28 23% 29.89 1004.0
16 17:53 NW 18 G 30 10.00 Fair CLR 71.1 28 73.9 66 20% 29.9 1004.5
16 16:53 W 14 G 29 10.00 Mostly Cloudy BKN120 69.1 28.9 22% 29.9 1004.2
16 15:53 W 15 G 26 10.00 A Few Clouds FEW110 71.1 28.9 21% 29.92 1004.1
16 14:53 W 13 G 20 10.00 Fair CLR 68 28 22% 29.94 1005.0
16 13:53 W 16 10.00 Fair CLR 66 27 23% 29.96 1006.0
16 12:53 W 20 G 33 10.00 Fair CLR 66.9 27 22% 29.98 1006.1
16 11:53 W 28 G 33 10.00 Fair and Windy CLR 66.9 24.1 68 37 20% 29.99 1006.4
16 10:53 W 23 G 31 10.00 Fair and Breezy CLR 64.9 25 22% 30.01 1006.9
16 09:53 W 14 10.00 Fair CLR 57 26.1 30% 30.01 1007.7
16 08:53 Vrbl 3 10.00 Fair CLR 54 27 35% 30.02 1008.3
16 07:53 S 6 10.00 Fair CLR 48.9 32 52% 47 30.02 1008.2
16 06:53 Calm 10.00 Fair CLR 44.1 28.9 55% 30.03 1008.6
16 05:53 NW 6 10.00 Fair CLR 39 28 54 39 65% 35 30.03 1009.0
16 04:53 NE 8 10.00 Fair CLR 44.1 27 51% 40 30.03 1008.4
16 03:53 N 13 10.00 Fair CLR 48.9 28.9 46% 44 30.02 1006.8
16 02:53 N 15 10.00 Fair CLR 50 28.9 44% 45 30.02 1006.8
16 01:53 N 13 10.00 Fair CLR 48.9 33.1 55% 44 30.01 1006.4
16 00:53 N 15 10.00 Fair CLR 52 34 50% 30.01 1006.2
15 23:53 N 17 10.00 Fair CLR 54 34 73 53.1 47% 30.01 1006.1
15 22:53 NW 6 10.00 Fair CLR 55.9 37 49% 30 1006.2
15 21:53 NE 5 10.00 Fair CLR 59 33.1 38% 29.99 1006.0
15 20:53 W 3 10.00 Fair CLR 59 28.9 32% 29.99 1006.6
15 19:53 W 15 10.00 Fair CLR 66.9 28 23% 29.98 1005.5
15 18:53 W 24 G 33 10.00 Fair and Breezy CLR 70 26.1 19% 29.97 1005.1
15 17:53 W 20 G 30 10.00 Fair CLR 73 28 77 71.1 19% 29.97 1004.6
15 16:53 W 21 G 33 10.00 Fair and Breezy CLR 71.1 26.1 19% 29.97 1005.4
15 15:53 W 21 G 37 10.00 Fair and Breezy CLR 75.9 30.9 19% 76 29.98 1005.3
15 14:53 W 24 G 35 10.00 Fair and Breezy CLR 75.9 28.9 18% 76 29.99 1006.0
15 13:53 W 15 10.00 Fair CLR 75.9 28.9 18% 76 29.99 1006.1
15 12:53 W 20 G 31 10.00 Fair CLR 75 30.9 20% 76 30 1006.0
15 11:53 SW 21 G 29 10.00 A Few Clouds and Breezy FEW100 73.9 30.9 75 48.9 20% 30.01 1005.9
15 10:53 S 16 G 25 10.00 Fair CLR 69.1 44.1 41% 30.01 1005.9
15 09:53 S 15 10.00 Fair CLR 64.9 46 51% 30.03 1007.5
15 08:53 S 6 10.00 A Few Clouds FEW095 59 46 62% 30.05 1007.8
Date Time (mdt) Wind (mph) Vis. (mi.) Weather Sky Cond. Air Dwpt Max. Min. Relative Humidity Wind Chill (°F) Heat Index (°F) altimeter (in) sea level (mb) 1 hr 3 hr 6 hr
6 hour
Temperature (ºF) Pressure Precipitation (in)